Lapse_Rate
7.1 7.1 7.2 7.5 6.9 6.9 6.7 6.0 5.7 5.6 5.6 5.6 5.4 5.0 4.7 4.9 5.3 4.9 4.8 4.7 4.9 5.1 4.6 5.1 4.9 4.7 4.7 5.1 5.1 5.3 5.5 5.4
6.6 7.2 7.1 7.5 7.0 6.9 6.8 6.4 6.1 5.9 5.8 6.0 5.3 5.2 5.1 5.1 5.1 4.9 5.0 4.6 4.6 4.3 4.1 4.7 4.6 4.7 5.0 4.9 5.0 5.3 5.4 5.3
6.6 7.4 7.2 7.4 7.3 6.9 6.8 6.6 6.4 6.0 5.5 5.8 6.3 5.5 5.1 5.3 5.0 5.0 5.0 4.2 4.3 4.3 4.2 4.5 4.4 4.5 4.6 4.7 4.5 5.1 5.3 5.4
6.9 7.6 7.4 7.5 7.4 7.0 6.9 6.7 6.3 5.9 5.5 5.6 5.8 5.0 5.2 5.1 4.9 4.5 4.8 4.5 4.6 4.5 4.4 3.8 3.8 4.4 4.6 4.4 4.3 5.1 5.3 5.4
6.9 7.6 7.8 7.6 7.7 7.2 7.1 6.9 6.5 6.1 5.9 5.8 5.8 5.7 5.5 5.5 5.3 5.1 5.0 4.8 4.6 4.6 4.3 4.1 4.2 4.6 4.7 4.6 4.7 5.1 5.2 5.6
7.0 7.5 7.9 7.7 7.7 7.6 7.3 7.1 6.8 6.5 6.0 5.8 5.6 5.6 6.0 5.6 5.2 5.2 4.9 4.8 4.9 4.7 4.4 4.3 4.5 4.4 4.6 5.0 4.9 4.9 5.3 5.4
7.2 6.8 7.6 8.0 7.8 7.7 7.6 7.3 7.1 7.0 6.5 6.0 5.7 5.7 5.6 5.4 5.1 5.4 5.2 5.0 4.9 4.8 4.5 4.7 4.8 4.7 5.0 5.3 5.3 5.4 5.4 5.4
7.2 6.6 7.2 7.6 7.8 7.8 7.7 7.6 7.4 7.2 7.1 6.6 5.9 5.8 5.6 5.5 5.3 5.3 5.4 5.5 5.3 5.1 4.8 4.8 4.9 5.0 5.4 5.4 5.7 5.5 5.4 5.5
7.4 7.0 6.9 7.4 7.7 7.8 7.7 7.6 7.6 7.5 7.4 7.3 6.8 6.2 5.8 5.5 5.5 5.4 5.1 5.2 5.4 5.3 5.1 5.0 4.9 5.2 5.4 5.5 5.4 5.5 5.5 5.6
7.5 7.1 6.9 7.3 7.7 7.9 7.8 7.7 7.7 7.6 7.6 7.5 7.4 7.2 6.7 6.3 5.8 5.3 5.2 5.0 5.2 5.4 5.4 5.3 5.3 5.4 5.5 5.5 5.4 5.4 5.6 5.4
7.4 7.3 6.9 7.1 7.4 7.8 7.7 7.7 7.6 7.5 7.6 7.7 7.7 7.5 7.3 7.1 7.0 6.8 6.5 5.9 5.5 5.3 5.2 5.3 5.3 5.5 5.6 5.5 5.5 5.6 5.4 5.3
7.8 7.8 7.4 7.2 7.2 7.7 7.9 7.7 7.9 7.9 7.7 7.6 7.6 7.7 7.6 7.4 7.5 7.4 7.3 7.1 6.9 6.5 6.1 5.8 5.7 5.9 5.7 5.4 5.5 5.4 5.3 5.5
8.1 8.1 7.8 7.4 7.1 7.5 8.0 8.0 7.6 8.0 7.9 7.7 7.6 7.6 7.6 7.6 7.7 7.6 7.5 7.4 7.2 7.2 7.1 6.9 6.9 6.8 6.4 6.3 6.4 6.4 6.1 6.0
8.1 7.7 7.5 7.7 7.2 7.3 7.5 8.0 7.9 7.7 7.7 7.8 7.7 7.6 7.6 7.8 7.7 7.7 7.6 7.5 7.5 7.4 7.3 7.4 7.5 7.2 7.1 7.0 6.9 6.8 6.6 6.6
7.6 7.8 7.6 7.3 7.1 7.0 7.3 7.5 7.9 7.8 7.6 7.7 7.7 7.7 7.8 7.8 7.8 7.7 7.7 7.8 7.7 7.6 7.6 7.5 7.4 7.4 7.4 7.3 7.1 6.9 6.9 6.8
7.5 8.1 8.3 7.9 7.4 7.3 6.7 6.8 7.3 7.9 7.8 7.7 7.9 8.0 7.8 7.8 7.8 7.8 7.7 7.7 7.7 7.8 7.7 7.7 7.6 7.6 7.6 7.5 7.4 7.2 7.0 6.8
7.3 7.7 7.9 7.8 8.1 7.7 7.5 7.2 6.9 6.9 7.5 8.0 8.1 7.9 8.0 8.1 8.0 8.0 8.0 7.9 7.8 7.8 7.9 7.9 7.8 7.8 7.9 7.7 7.6 7.3 7.2 7.1
7.2 7.3 7.4 7.8 7.7 7.6 7.4 7.6 7.8 6.9 6.7 7.7 8.1 8.1 8.1 8.3 8.4 8.3 8.2 8.1 8.0 7.9 7.7 7.7 7.7 7.7 7.7 7.8 7.8 7.4 7.3 7.3
6.8 6.7 6.8 6.9 7.4 7.5 7.3 7.1 7.5 7.3 6.9 7.1 7.9 8.1 8.1 8.2 8.3 8.5 8.5 8.3 8.4 8.4 8.3 8.0 7.9 7.9 8.0 8.1 8.0 7.9 7.7 7.5
Wind_Speed
11 9 10 13 12 9 10 9 8 8 5 4 6 5 10 16 14 17 17 16 11 8 6 5 10 5 5 5 4 3 5 4
14 11 8 16 12 10 10 9 9 7 6 5 7 7 8 10 7 15 17 12 10 4 4 4 5 4 4 5 3 5 3 4
15 14 10 11 15 12 11 11 11 9 7 5 4 10 7 8 2 11 11 13 12 4 4 4 4 1 5 5 5 2 3 4
17 16 13 11 14 13 11 12 13 11 11 7 6 6 6 6 2 7 9 18 16 14 9 6 6 5 4 5 6 6 4 3
19 17 16 13 13 14 13 13 14 11 14 11 14 9 11 11 7 6 9 15 16 16 12 12 6 5 4 6 6 4 4 5
19 19 17 15 12 15 14 13 14 13 13 14 12 12 10 11 7 8 8 12 12 15 13 9 8 6 7 11 7 7 4 4
15 19 17 16 14 16 15 16 15 16 16 15 15 16 15 12 11 10 8 7 8 8 13 8 8 7 8 7 7 8 8 5
13 19 17 16 17 17 15 17 16 16 17 16 17 16 17 17 16 13 14 10 8 9 11 10 7 7 6 6 6 7 8 8
10 16 17 17 17 18 17 18 17 17 18 18 16 17 11 11 15 13 12 12 10 11 12 12 8 11 12 7 6 7 8 7
7 10 16 16 17 18 18 18 18 19 21 16 17 17 17 15 16 16 13 15 10 9 11 13 14 12 13 12 9 9 8 9
10 9 14 15 17 17 17 17 17 19 19 17 16 18 17 16 16 18 18 17 17 15 13 12 15 17 16 13 11 12 12 10
5 4 11 16 17 17 18 17 18 17 19 18 18 18 19 17 17 17 19 19 19 19 18 18 16 14 14 13 13 13 13 12
6 4 3 4 13 15 17 17 15 16 17 19 19 18 18 18 18 18 18 20 18 20 21 19 20 20 18 17 17 16 15 14
12 11 3 4 7 10 13 16 17 14 15 18 19 20 21 22 22 20 19 19 18 19 19 21 20 20 20 20 19 18 17 17
15 16 17 17 2 7 9 12 14 15 15 15 19 20 22 22 20 20 21 21 21 20 20 22 22 20 20 21 20 19 19 18
13 14 14 15 15 13 6 10 13 16 16 17 19 18 18 18 20 20 20 20 19 21 19 20 19 18 16 21 20 19 19 19
11 12 14 16 17 16 16 15 9 13 17 18 17 16 17 19 18 18 17 20 21 19 21 21 20 16 21 20 19 16 18 17
13 13 14 13 14 16 16 17 16 9 13 17 17 16 17 19 18 18 19 20 18 20 20 19 20 20 16 18 19 16 15 14
11 11 12 13 14 16 19 18 18 16 12 14 15 17 18 18 17 19 20 18 18 17 18 18 17 16 14 18 17 14 14 14
Wind_Direction
184 167 160 152 153 172 153 154 154 134 123 118 153 157 153 150 152 161 182 214 162 169 116 157 128 142 127 137 159 164 154 167
164 157 146 141 155 172 165 150 150 138 137 133 131 129 126 137 162 181 169 159 159 136 110 107 86 114 146 144 149 165 183 189
153 153 167 166 160 173 168 159 160 152 146 145 118 137 117 132 143 159 153 150 160 161 146 140 160 180 152 152 146 177 187 185
158 163 178 176 159 162 167 162 164 156 158 142 118 117 130 152 154 167 170 163 170 191 177 168 177 193 167 160 169 188 198 200
161 168 173 184 167 158 163 170 167 166 163 161 157 164 167 180 173 163 179 166 182 190 197 190 185 183 189 174 180 199 183 183
164 168 173 175 179 160 163 177 176 171 172 175 173 176 177 180 182 188 189 185 184 185 205 201 185 196 213 191 181 190 208 213
164 162 167 170 176 160 162 176 184 176 178 175 180 181 179 183 186 196 207 205 186 192 206 211 204 182 200 204 185 186 207 221
164 159 168 174 175 166 164 176 186 181 180 182 187 185 185 192 190 195 201 213 201 194 206 221 213 193 207 197 186 194 197 212
168 167 169 176 173 167 175 176 186 189 187 186 186 191 190 192 196 198 205 214 215 208 205 218 217 207 212 209 208 204 208 217
164 170 169 175 175 178 179 182 185 190 198 189 190 192 191 192 198 201 205 208 218 214 211 210 221 215 212 210 215 211 213 218
174 176 171 176 175 177 179 185 194 185 192 198 195 196 199 194 201 201 205 208 213 212 217 221 219 221 216 213 217 214 211 217
17 195 180 177 174 176 181 190 192 191 186 196 199 202 203 199 204 204 204 208 206 210 210 216 223 221 217 216 219 217 215 219
94 40 49 186 173 177 179 188 203 195 187 189 201 202 208 207 210 209 208 208 208 209 212 213 214 217 219 220 221 221 219 219
4 12 113 165 170 183 187 187 193 210 197 192 194 202 203 208 211 211 209 215 211 212 214 216 218 215 217 220 220 222 224 226
18 7 5 5 325 184 197 191 196 198 216 205 201 203 208 212 210 210 213 211 214 214 214 216 220 221 217 219 222 226 228 231
15 1 351 352 353 355 317 212 192 198 210 218 221 209 212 212 213 215 212 215 217 217 218 220 222 219 225 226 225 226 229 233
9 358 5 356 347 342 339 339 223 194 204 219 221 218 212 217 218 216 213 216 218 218 219 220 221 224 224 215 219 226 229 233
17 9 7 353 343 332 330 327 323 287 210 216 221 220 218 218 217 216 219 220 217 220 223 223 226 228 218 210 210 227 233 234
18 17 359 356 355 356 343 335 326 313 283 229 221 221 226 224 214 217 221 219 217 219 222 221 226 229 222 213 206 217 228 231